Dewpoint
35 28 23 23 26 25 23 23 21 20 19 17 17 16 15 16 19 21 19 25 26 30 33 36 38 38 38 43 42 42 44 44 43 43 43 43 43 45 46 45 46 48 48 48
24 28 28 23 21 22 24 22 20 21 21 19 17 17 18 19 21 20 20 22 26 30 32 36 37 38 40 41 41 41 40 41 41 40 42 43 43 43 43 46 46 48 47 47
18 19 23 24 20 16 23 23 23 22 23 23 22 20 20 18 18 21 21 23 25 29 32 36 36 38 40 40 41 38 39 40 42 42 40 41 42 43 43 43 44 44 45 45
16 18 17 20 19 19 20 21 20 21 21 19 22 19 21 19 18 19 21 24 26 29 33 35 35 37 40 41 40 39 39 38 40 42 42 42 39 38 40 42 44 44 45 44
23 19 17 17 18 18 20 21 17 17 19 21 20 15 14 16 17 17 21 24 28 32 35 35 35 35 36 39 41 41 39 39 41 42 42 41 41 41 41 41 43 43 43 44
18 25 25 19 18 18 20 17 18 20 21 19 18 15 13 13 14 17 21 23 28 33 36 36 36 35 36 42 42 42 38 37 40 40 41 41 41 40 39 40 41 40 41 41
19 19 23 23 19 20 19 22 20 16 17 16 14 13 15 15 17 19 21 24 31 35 38 36 34 32 35 38 40 39 37 35 38 39 40 40 40 40 38 38 38 39 39 39
21 20 18 17 18 19 18 19 20 13 13 13 12 12 13 18 21 24 22 26 31 37 38 35 34 33 34 36 37 37 35 34 36 38 39 39 39 38 38 38 38 38 38 39
25 17 17 23 24 19 20 18 20 21 21 20 16 15 17 19 21 22 22 27 33 37 38 36 35 35 34 35 38 38 35 33 35 37 39 39 39 39 38 38 38 37 38 35
34 30 24 25 29 27 22 22 25 32 26 20 18 17 16 25 24 23 25 32 36 38 38 37 35 36 34 35 37 39 36 34 35 37 37 37 37 37 37 38 37 37 36 36
29 33 26 26 31 28 26 26 31 32 32 26 21 18 26 25 30 31 29 35 37 37 37 37 35 35 34 34 35 37 35 34 35 36 37 38 37 37 37 36 35 35 35 34
28 29 28 22 28 25 23 27 28 28 23 26 23 19 23 29 29 33 30 33 36 37 37 36 35 35 33 33 32 33 35 34 35 34 36 37 36 35 35 34 34 34 32 32
26 25 19 15 17 16 18 25 28 32 33 30 27 24 25 29 28 34 35 37 37 37 36 35 37 37 34 33 31 30 32 32 32 32 34 35 35 34 34 33 32 31 31 30
26 19 19 17 15 19 24 20 19 24 29 30 27 25 24 26 28 34 34 36 38 37 35 37 36 35 36 34 32 30 31 31 31 31 32 33 33 33 32 32 31 31 31 30
20 19 14 10 8 6 8 8 9 19 26 26 26 26 23 23 23 21 28 34 35 35 35 34 34 34 35 36 33 31 31 30 30 29 30 32 32 30 30 30 31 30 29 29
22 19 16 13 10 7 6 7 8 8 8 7 9 8 9 13 18 16 18 24 33 34 35 34 32 31 32 33 31 29 30 30 30 29 28 28 28 28 29 29 29 29 26 28
23 27 20 17 15 14 18 18 14 21 16 13 15 17 19 20 19 20 26 32 35 36 35 32 30 31 32 30 28 28 27 29 28 29 27 26 26 26 28 27 26 26 27 27
23 24 23 20 18 16 15 13 13 14 19 19 16 19 22 23 25 36 35 36 35 37 34 31 30 31 30 27 25 27 25 26 27 26 25 26 26 25 25 25 24 25 25 26
20 20 20 18 16 14 12 10 8 9 11 12 16 19 23 21 30 33 32 35 38 37 33 32 31 29 26 24 23 23 23 24 25 24 24 23 24 24 25 25 25 23 23 23
14 20 20 19 15 12 16 13 12 14 17 18 29 31 34 35 27 35 32 35 34 31 31 30 28 25 23 22 22 22 22 22 23 23 23 23 23 22 21 23 23 22 20 19
21 19 18 18 18 17 17 15 16 20 22 28 30 33 33 38 39 34 32 31 30 30 28 27 24 22 21 23 22 21 20 20 21 21 22 22 21 20 22 21 19 18 18 20
15 20 24 21 17 15 15 14 16 25 31 32 29 38 37 35 34 32 30 28 26 25 24 21 21 20 21 21 20 16 16 17 18 18 18 19 20 18 18 20 18 17 16 17
16 16 17 23 28 31 28 31 32 37 36 35 35 36 34 33 31 29 27 26 24 22 19 20 20 20 20 19 18 16 15 14 16 16 16 18 17 18 20 21 19 18 17 17
18 16 20 21 21 21 25 27 30 29 32 35 34 33 33 31 29 27 25 24 23 22 20 20 19 18 18 17 15 14 15 14 13 14 16 17 18 18 20 22 21 20 18 17
23 21 23 24 26 27 29 26 32 34 34 37 36 33 32 30 28 27 26 26 24 21 19 19 19 19 16 15 14 13 14 13 14 16 16 18 19 18 19 23 23 22 20 18
24 26 26 27 28 30 32 37 38 39 36 35 36 34 31 30 31 30 28 26 21 19 19 20 19 17 14 14 14 14 15 16 17 17 18 20 19 20 18 19 22 20 19 17
Lifted_Index
4 4 5 4 4 3 3 3 3 3 3 3 3 4 4 4 4 4 5 5 5 5 5 6 7 8 9 10 10 10 11 11 11 11 12 12 12 12 12 12 12 12 12 12
4 4 4 4 4 3 3 3 3 3 3 3 3 4 4 4 4 4 4 4 4 5 5 6 7 8 9 10 10 11 11 11 12 12 12 12 12 12 12 12 12 12 12 12
5 5 4 4 4 4 3 3 3 3 3 3 3 3 3 3 3 3 4 4 4 4 5 6 6 7 9 10 10 11 12 12 12 12 12 12 12 12 12 12 12 12 12 13
5 5 4 4 4 4 3 3 3 3 3 3 3 3 3 3 2 3 3 3 3 3 4 5 6 7 9 10 10 11 12 12 12 12 12 12 12 12 13 12 12 12 13 13
5 4 4 4 4 4 3 3 3 3 3 3 3 3 3 3 2 2 2 3 3 3 4 5 6 7 9 10 10 11 12 12 12 12 13 13 13 13 13 13 13 13 13 13
5 4 3 3 3 4 3 3 3 3 2 3 3 3 3 3 2 1 2 2 2 3 4 5 6 7 9 10 10 11 12 12 13 13 13 13 13 13 13 13 13 13 13 13
4 4 3 3 3 3 3 3 2 1 1 2 2 2 2 2 2 1 2 2 2 2 3 4 5 7 9 10 10 11 12 12 13 13 13 13 14 14 14 14 14 14 14 14
2 2 2 2 2 3 3 2 1 1 1 2 2 2 2 2 1 1 1 2 2 2 2 3 5 7 9 9 10 11 12 12 13 13 13 13 13 13 14 14 14 14 14 14
1 1 1 1 1 2 2 2 1 1 1 1 2 2 2 1 1 2 2 2 2 2 2 3 5 6 8 9 10 11 11 12 12 13 13 13 13 13 14 14 14 14 14 14
0 1 0 0 0 1 1 1 1 1 1 1 1 2 1 1 2 2 2 2 2 2 3 4 5 6 8 9 10 11 12 12 13 13 13 13 13 14 14 14 14 14 15 15
-0 0 0 -0 -0 0 0 0 0 0 0 0 1 1 1 1 1 2 2 2 2 2 3 4 5 6 8 9 10 11 12 12 13 13 13 13 13 14 14 14 14 14 15 15
-0 0 0 0 0 1 1 0 0 -0 0 0 1 1 1 1 1 1 2 2 2 2 3 4 5 6 7 9 10 11 11 12 12 12 12 13 13 14 14 14 14 14 15 15
0 1 1 1 1 1 1 1 1 0 0 0 0 0 0 0 1 1 1 1 1 2 3 4 4 5 6 8 9 10 11 11 11 12 12 13 13 13 13 13 14 14 15 15
1 1 2 2 2 1 1 1 1 1 1 0 0 0 0 1 1 1 1 1 1 1 3 3 4 4 5 7 9 10 10 10 11 11 12 12 12 13 13 13 14 14 15 15
1 2 2 2 2 2 2 2 2 2 2 1 1 1 2 1 2 2 1 1 0 1 2 3 3 3 5 7 9 9 9 9 10 11 12 12 12 13 13 13 14 15 15 15
1 1 2 2 2 2 2 2 2 2 2 2 3 3 3 3 2 2 1 -0 -1 0 2 2 3 3 5 7 8 8 8 9 10 11 11 12 12 12 13 13 14 15 15 15
0 0 1 1 1 1 1 2 2 2 2 2 2 3 3 2 1 1 -0 -1 -1 -0 1 2 2 3 5 7 8 8 8 10 11 11 11 12 12 12 13 13 14 15 15 15
-0 -0 0 0 0 1 1 2 2 1 1 1 1 1 1 1 0 -1 -1 -2 -1 -1 1 2 3 4 6 7 8 8 10 11 11 11 11 12 12 13 13 14 15 15 15 16
0 0 0 0 0 1 1 2 1 1 1 0 -0 -0 0 0 -1 -1 -1 -1 -1 -0 1 2 3 5 6 8 9 10 11 11 11 11 12 13 14 14 15 15 15 16 16 16
0 0 0 0 0 1 1 2 1 0 0 -0 -1 -1 -0 -0 -0 -0 0 -0 -0 0 1 3 4 5 7 9 10 11 11 11 12 12 13 14 15 15 16 16 16 17 17 17
0 0 0 0 0 1 1 1 0 0 -0 -1 -1 -1 -0 0 0 0 1 1 0 1 2 4 5 6 8 10 11 11 11 12 13 13 14 15 16 16 16 17 17 17 17 17
0 0 0 0 0 0 0 0 -0 -0 -1 -1 -1 -1 -0 1 1 1 1 1 2 2 4 5 6 8 10 11 12 12 12 13 14 14 15 16 16 16 17 17 17 18 18 18
0 0 0 0 0 0 -0 -0 -0 -1 -1 -1 -1 -1 0 1 1 1 2 2 3 4 6 8 8 9 10 12 12 12 13 14 15 15 15 16 16 17 17 17 18 18 18 18
0 0 0 1 0 0 -0 -0 -0 -1 -1 -1 -1 -0 0 1 1 1 2 3 5 7 8 10 10 10 10 12 13 14 14 15 15 15 16 16 17 17 17 18 18 18 18 18
0 0 0 1 1 0 -0 -0 -1 -1 -1 -1 -0 -0 0 1 1 2 3 4 7 9 10 10 10 10 11 13 14 14 15 15 15 15 16 16 16 17 17 18 18 19 19 19
1 1 1 1 0 0 0 -0 -1 -1 -1 -0 0 0 1 1 1 2 4 6 8 10 11 11 10 11 12 13 14 15 15 15 15 15 16 16 16 17 17 18 18 19 20 20